| time (UTC) | temp F | wind direction | speed knots | gust knots | rain 1hr in | rain 24hr in | rain mn in | humidity % | barometer mb |
| 20260508120004 | 60 | 64 | 17.4 | 21.7 | 0.00 | 0.00 | 0.00 | 17 | 1025.2 |
| 20260508115403 | 60 | 53 | 17.4 | 20.0 | 0.00 | 0.00 | 0.00 | 17 | 1025.2 |
| 20260508114503 | 60 | 47 | 14.8 | 20.0 | 0.00 | 0.00 | 0.00 | 17 | 1025.3 |
| 20260508113603 | 60 | 68 | 15.6 | 21.7 | 0.00 | 0.00 | 0.00 | 17 | 1025.1 |
| 20260508112703 | 60 | 48 | 16.5 | 21.7 | 0.00 | 0.00 | 0.00 | 17 | 1025.1 |
| 20260508111804 | 60 | 43 | 14.8 | 24.3 | 0.00 | 0.00 | 0.00 | 17 | 1025.3 |
| 20260508110903 | 60 | 58 | 15.6 | 18.2 | 0.00 | 0.00 | 0.00 | 17 | 1025.2 |
| 20260508110004 | 60 | 60 | 16.5 | 21.7 | 0.00 | 0.00 | 0.00 | 17 | 1025.1 |
| 20260508105404 | 60 | 43 | 14.8 | 21.7 | 0.00 | 0.00 | 0.00 | 17 | 1025.2 |
| 20260508104504 | 59 | 45 | 14.8 | 21.7 | 0.00 | 0.00 | 0.00 | 17 | 1025.2 |
| 20260508103604 | 59 | 54 | 14.8 | 23.5 | 0.00 | 0.00 | 0.00 | 17 | 1025.3 |
| 20260508102703 | 58 | 36 | 15.6 | 18.2 | 0.00 | 0.00 | 0.00 | 18 | 1025.3 |
| 20260508101803 | 59 | 37 | 14.8 | 19.1 | 0.00 | 0.00 | 0.00 | 18 | 1025.3 |
| 20260508100904 | 59 | 46 | 15.6 | 20.0 | 0.00 | 0.00 | 0.00 | 18 | 1025.4 |
| 20260508100004 | 58 | 51 | 17.4 | 22.6 | 0.00 | 0.00 | 0.00 | 18 | 1025.4 |
| 20260508095403 | 58 | 47 | 17.4 | 20.9 | 0.00 | 0.00 | 0.00 | 18 | 1025.5 |
| 20260508094503 | 58 | 48 | 15.6 | 20.0 | 0.00 | 0.00 | 0.00 | 18 | 1025.4 |
| 20260508093604 | 57 | 46 | 15.6 | 20.0 | 0.00 | 0.00 | 0.00 | 18 | 1025.5 |
| 20260508092704 | 57 | 51 | 13.9 | 16.5 | 0.00 | 0.00 | 0.00 | 18 | 1025.4 |
| 20260508091804 | 56 | 41 | 17.4 | 19.1 | 0.00 | 0.00 | 0.00 | 18 | 1025.4 |
| 20260508090903 | 57 | 52 | 16.5 | 20.9 | 0.00 | 0.00 | 0.00 | 18 | 1025.4 |
| 20260508090004 | 57 | 54 | 16.5 | 19.1 | 0.00 | 0.00 | 0.00 | 18 | 1025.4 |
| 20260508085404 | 57 | 60 | 16.5 | 19.1 | 0.00 | 0.00 | 0.00 | 18 | 1025.5 |
| 20260508084717 | 57 | 77 | 15.6 | 18.2 | 0.00 | 0.00 | 0.00 | 18 | 1025.5 |
| 20260508083603 | 56 | 47 | 15.6 | 20.0 | 0.00 | 0.00 | 0.00 | 19 | 1025.4 |
| 20260508082704 | 56 | 59 | 17.4 | 21.7 | 0.00 | 0.00 | 0.00 | 19 | 1025.4 |
| 20260508082018 | 56 | 70 | 17.4 | 21.7 | 0.00 | 0.00 | 0.00 | 19 | 1025.3 |
| 20260508080903 | 56 | 58 | 15.6 | 21.7 | 0.00 | 0.00 | 0.00 | 19 | 1025.5 |
| 20260508080004 | 56 | 56 | 16.5 | 19.1 | 0.00 | 0.00 | 0.00 | 19 | 1025.5 |
| 20260508075404 | 55 | 52 | 16.5 | 19.1 | 0.00 | 0.00 | 0.00 | 18 | 1025.5 |
| 20260508074503 | 54 | 39 | 16.5 | 20.0 | 0.00 | 0.00 | 0.00 | 17 | 1025.3 |
| 20260508073604 | 54 | 55 | 14.8 | 18.2 | 0.00 | 0.00 | 0.00 | 20 | 1025.2 |
| 20260508072703 | 54 | 52 | 16.5 | 19.1 | 0.00 | 0.00 | 0.00 | 20 | 1025.3 |
| 20260508071803 | 54 | 55 | 15.6 | 20.0 | 0.00 | 0.00 | 0.00 | 23 | 1025.2 |
| 20260508070904 | 53 | 48 | 14.8 | 18.2 | 0.00 | 0.00 | 0.00 | 26 | 1025.2 |
| 20260508070004 | 54 | 48 | 12.2 | 17.4 | 0.00 | 0.00 | 0.00 | 28 | 1025.1 |
| 20260508065403 | 53 | 50 | 13.9 | 17.4 | 0.00 | 0.00 | 0.00 | 30 | 1025.1 |
| 20260508064504 | 53 | 60 | 14.8 | 17.4 | 0.00 | 0.00 | 0.00 | 32 | 1025.1 |
| 20260508063604 | 52 | 47 | 14.8 | 17.4 | 0.00 | 0.00 | 0.00 | 32 | 1025.0 |
| 20260508062704 | 51 | 44 | 12.2 | 14.8 | 0.00 | 0.00 | 0.00 | 35 | 1025.0 |
| 20260508061804 | 51 | 53 | 13.0 | 16.5 | 0.00 | 0.00 | 0.00 | 37 | 1024.9 |
| 20260508060904 | 51 | 45 | 17.4 | 18.2 | 0.00 | 0.00 | 0.00 | 38 | 1024.8 |
| 20260508060219 | 50 | 45 | 15.6 | 18.2 | 0.00 | 0.00 | 0.00 | 39 | 1024.8 |
| 20260508055404 | 50 | 45 | 13.0 | 14.8 | 0.00 | 0.00 | 0.00 | 40 | 1024.8 |
| 20260508054503 | 49 | 45 | 12.2 | 14.8 | 0.00 | 0.00 | 0.00 | 42 | 1024.7 |
| 20260508053603 | 48 | 47 | 13.0 | 14.8 | 0.00 | 0.00 | 0.00 | 43 | 1024.7 |
| 20260508052704 | 48 | 45 | 12.2 | 14.8 | 0.00 | 0.00 | 0.00 | 45 | 1024.6 |
| 20260508051804 | 47 | 45 | 11.3 | 13.0 | 0.00 | 0.00 | 0.00 | 46 | 1024.4 |
| 20260508050904 | 46 | 42 | 10.4 | 11.3 | 0.00 | 0.00 | 0.00 | 47 | 1024.2 |
| 20260508050004 | 46 | 42 | 10.4 | 13.0 | 0.00 | 0.00 | 0.00 | 47 | 1024.3 |
| 20260508045404 | 46 | 40 | 11.3 | 13.0 | 0.00 | 0.00 | 0.00 | 47 | 1024.1 |
| 20260508044504 | 45 | 38 | 10.4 | 13.0 | 0.00 | 0.00 | 0.00 | 48 | 1023.9 |
| 20260508043603 | 45 | 40 | 10.4 | 13.0 | 0.00 | 0.00 | 0.00 | 49 | 1023.9 |
| 20260508042918 | 44 | 36 | 11.3 | 13.0 | 0.00 | 0.00 | 0.00 | 49 | 1023.9 |
| 20260508041803 | 44 | 40 | 9.6 | 11.3 | 0.00 | 0.00 | 0.00 | 51 | 1023.6 |
| 20260508040903 | 44 | 43 | 9.6 | 10.4 | 0.00 | 0.00 | 0.00 | 53 | 1023.6 |
| 20260508040005 | 43 | 30 | 9.6 | 11.3 | 0.00 | 0.00 | 0.00 | 55 | 1023.6 |
| 20260508035405 | 43 | 35 | 8.7 | 11.3 | 0.00 | 0.00 | 0.00 | 56 | 1023.5 |
| 20260508034504 | 42 | 42 | 8.7 | 9.6 | 0.00 | 0.00 | 0.00 | 58 | 1023.4 |
| 20260508033603 | 42 | 45 | 7.8 | 9.6 | 0.00 | 0.00 | 0.00 | 58 | 1023.3 |
| 20260508032703 | 41 | 37 | 7.8 | 9.6 | 0.00 | 0.00 | 0.00 | 59 | 1023.3 |
| 20260508031803 | 41 | 39 | 7.8 | 9.6 | 0.00 | 0.00 | 0.00 | 60 | 1023.0 |
| 20260508030903 | 40 | 45 | 7.0 | 9.6 | 0.00 | 0.00 | 0.00 | 60 | 1023.0 |
| 20260508030004 | 40 | 45 | 7.0 | 8.7 | 0.00 | 0.00 | 0.00 | 60 | 1023.0 |
| 20260508025404 | 40 | 43 | 7.8 | 8.7 | 0.00 | 0.00 | 0.00 | 60 | 1022.9 |
| 20260508024503 | 40 | 43 | 7.8 | 8.7 | 0.00 | 0.00 | 0.00 | 59 | 1022.9 |
| 20260508023818 | 40 | 40 | 7.0 | 8.7 | 0.00 | 0.00 | 0.00 | 59 | 1022.8 |
| 20260508022703 | 40 | 36 | 7.8 | 9.6 | 0.00 | 0.00 | 0.00 | 58 | 1022.7 |
| 20260508021803 | 41 | 31 | 7.8 | 8.7 | 0.00 | 0.00 | 0.00 | 57 | 1022.5 |
| 20260508020903 | 41 | 15 | 7.8 | 7.8 | 0.00 | 0.00 | 0.00 | 56 | 1022.3 |
| 20260508020217 | 41 | 11 | 7.8 | 9.6 | 0.00 | 0.00 | 0.00 | 55 | 1022.2 |
| 20260508015403 | 41 | 20 | 7.8 | 8.7 | 0.00 | 0.00 | 0.00 | 54 | 1022.1 |
| 20260508014718 | 41 | 18 | 7.8 | 9.6 | 0.00 | 0.00 | 0.00 | 53 | 1022.2 |
| 20260508013603 | 42 | 4 | 8.7 | 10.4 | 0.00 | 0.00 | 0.00 | 51 | 1022.0 |
| 20260508012917 | 42 | 11 | 8.7 | 10.4 | 0.00 | 0.00 | 0.00 | 50 | 1022.0 |
| 20260508011804 | 42 | 10 | 8.7 | 9.6 | 0.00 | 0.00 | 0.00 | 48 | 1021.8 |
| 20260508010904 | 43 | 11 | 9.6 | 12.2 | 0.00 | 0.00 | 0.00 | 46 | 1021.8 |
| 20260508010004 | 43 | 10 | 8.7 | 9.6 | 0.00 | 0.00 | 0.00 | 46 | 1021.6 |
| 20260508005403 | 43 | 18 | 8.7 | 9.6 | 0.00 | 0.00 | 0.00 | 46 | 1021.6 |
| 20260508004504 | 43 | 20 | 8.7 | 9.6 | 0.00 | 0.00 | 0.00 | 46 | 1021.6 |
| 20260508003603 | 43 | 24 | 9.6 | 11.3 | 0.00 | 0.00 | 0.00 | 46 | 1021.6 |
| 20260508002917 | 44 | 26 | 9.6 | 11.3 | 0.00 | 0.00 | 0.00 | 46 | 1021.5 |
| 20260508001803 | 44 | 18 | 9.6 | 13.0 | 0.00 | 0.00 | 0.00 | 47 | 1021.3 |
| 20260508000903 | 43 | 360 | 9.6 | 9.6 | 0.00 | 0.00 | 0.00 | 47 | 1021.3 |
| 20260508000004 | 43 | 6 | 8.7 | 10.4 | 0.00 | 0.00 | 0.00 | 49 | 1021.1 |
| 20260507235403 | 42 | 8 | 7.8 | 10.4 | 0.00 | 0.00 | 0.00 | 50 | 1021.1 |
| 20260507234504 | 42 | 360 | 7.8 | 9.6 | 0.00 | 0.00 | 0.00 | 51 | 1021.1 |
| 20260507233603 | 42 | 360 | 8.7 | 11.3 | 0.00 | 0.00 | 0.00 | 51 | 1021.0 |
| 20260507232704 | 42 | 360 | 8.7 | 11.3 | 0.00 | 0.00 | 0.00 | 51 | 1020.8 |
| 20260507231805 | 42 | 360 | 7.8 | 9.6 | 0.00 | 0.00 | 0.00 | 50 | 1020.8 |
| 20260507230904 | 42 | 3 | 7.0 | 9.6 | 0.00 | 0.00 | 0.00 | 50 | 1020.6 |
| 20260507230004 | 42 | 360 | 7.0 | 8.7 | 0.00 | 0.00 | 0.00 | 50 | 1020.6 |
| 20260507225404 | 42 | 360 | 7.8 | 9.6 | 0.00 | 0.00 | 0.00 | 49 | 1020.5 |
| 20260507224504 | 42 | 360 | 7.8 | 9.6 | 0.00 | 0.00 | 0.00 | 49 | 1020.3 |
| 20260507223603 | 43 | 360 | 8.7 | 9.6 | 0.00 | 0.00 | 0.00 | 48 | 1020.3 |
| 20260507222704 | 43 | 360 | 8.7 | 9.6 | 0.00 | 0.00 | 0.00 | 46 | 1020.2 |
| 20260507221804 | 43 | 360 | 9.6 | 10.4 | 0.00 | 0.00 | 0.00 | 46 | 1020.2 |
| 20260507220903 | 43 | 360 | 11.3 | 12.2 | 0.00 | 0.00 | 0.00 | 45 | 1019.9 |
| 20260507220004 | 43 | 360 | 9.6 | 12.2 | 0.00 | 0.00 | 0.00 | 44 | 1019.9 |
| 20260507215404 | 43 | 360 | 10.4 | 11.3 | 0.00 | 0.00 | 0.00 | 43 | 1019.8 |
| 20260507214503 | 43 | 357 | 10.4 | 12.2 | 0.00 | 0.00 | 0.00 | 41 | 1019.7 |
| 20260507213603 | 43 | 359 | 10.4 | 13.0 | 0.00 | 0.00 | 0.00 | 41 | 1019.6 |
| 20260507212703 | 43 | 360 | 10.4 | 12.2 | 0.00 | 0.00 | 0.00 | 41 | 1019.6 |
| 20260507211803 | 42 | 360 | 9.6 | 11.3 | 0.00 | 0.00 | 0.00 | 44 | 1019.4 |
| 20260507210903 | 41 | 360 | 8.7 | 10.4 | 0.00 | 0.00 | 0.00 | 46 | 1019.3 |
| 20260507210004 | 42 | 355 | 5.2 | 7.8 | 0.00 | 0.00 | 0.00 | 43 | 1019.3 |
| 20260507205403 | 42 | 343 | 3.5 | 4.3 | 0.00 | 0.00 | 0.00 | 41 | 1019.2 |
| 20260507204718 | 43 | 2 | 2.6 | 3.5 | 0.00 | 0.00 | 0.00 | 41 | 1019.2 |
| 20260507203603 | 43 | 3 | 3.5 | 4.3 | 0.00 | 0.00 | 0.00 | 38 | 1019.1 |
| 20260507202917 | 44 | 3 | 4.3 | 7.0 | 0.00 | 0.00 | 0.00 | 37 | 1018.9 |
| 20260507201803 | 45 | 14 | 5.2 | 6.1 | 0.00 | 0.00 | 0.00 | 33 | 1018.8 |
| 20260507201118 | 45 | 8 | 5.2 | 6.1 | 0.00 | 0.00 | 0.00 | 31 | 1018.8 |
| 20260507200217 | 45 | 20 | 6.1 | 7.8 | 0.00 | 0.00 | 0.00 | 30 | 1018.8 |
| 20260507195403 | 45 | 17 | 5.2 | 6.1 | 0.00 | 0.00 | 0.00 | 30 | 1018.5 |
| 20260507194503 | 46 | 23 | 7.0 | 7.8 | 0.00 | 0.00 | 0.00 | 30 | 1018.5 |
| 20260507193818 | 46 | 360 | 7.8 | 8.7 | 0.00 | 0.00 | 0.00 | 31 | 1018.4 |
| 20260507192703 | 46 | 5 | 7.8 | 9.6 | 0.00 | 0.00 | 0.00 | 34 | 1018.4 |
| 20260507191804 | 46 | 9 | 7.8 | 9.6 | 0.00 | 0.00 | 0.00 | 34 | 1018.2 |
| 20260507190903 | 47 | 4 | 6.1 | 7.8 | 0.00 | 0.00 | 0.00 | 37 | 1018.0 |
| 20260507190217 | 47 | 2 | 7.0 | 7.8 | 0.00 | 0.00 | 0.00 | 39 | 1017.8 |
| 20260507185404 | 47 | 360 | 7.8 | 9.6 | 0.00 | 0.00 | 0.00 | 39 | 1017.8 |
| 20260507184504 | 48 | 360 | 7.8 | 11.3 | 0.00 | 0.00 | 0.00 | 37 | 1017.6 |
| 20260507183603 | 49 | 360 | 9.6 | 10.4 | 0.00 | 0.00 | 0.00 | 35 | 1017.5 |
| 20260507182703 | 49 | 353 | 9.6 | 10.4 | 0.00 | 0.00 | 0.00 | 33 | 1017.4 |
| 20260507181803 | 50 | 357 | 8.7 | 9.6 | 0.00 | 0.00 | 0.00 | 29 | 1017.1 |
| 20260507180903 | 51 | 358 | 7.8 | 9.6 | 0.00 | 0.00 | 0.00 | 21 | 1017.0 |
| 20260507180004 | 52 | 360 | 9.6 | 12.2 | 0.00 | 0.00 | 0.00 | 16 | 1016.8 |
| 20260507175403 | 53 | 360 | 10.4 | 12.2 | 0.00 | 0.00 | 0.00 | 16 | 1016.8 |
| 20260507174503 | 54 | 8 | 13.0 | 15.6 | 0.00 | 0.00 | 0.00 | 15 | 1016.6 |
| 20260507173604 | 54 | 1 | 13.0 | 17.4 | 0.00 | 0.00 | 0.00 | 15 | 1016.6 |
| 20260507172703 | 54 | 3 | 15.6 | 18.2 | 0.00 | 0.00 | 0.00 | 15 | 1016.5 |
| 20260507171803 | 54 | 6 | 15.6 | 18.2 | 0.00 | 0.00 | 0.00 | 16 | 1016.3 |
| 20260507170903 | 55 | 1 | 15.6 | 18.2 | 0.00 | 0.00 | 0.00 | 16 | 1016.0 |
| 20260507170004 | 55 | 16 | 15.6 | 18.2 | 0.00 | 0.00 | 0.00 | 16 | 1015.9 |
| 20260507165403 | 55 | 8 | 16.5 | 18.2 | 0.00 | 0.00 | 0.00 | 19 | 1015.8 |
| 20260507164503 | 56 | 360 | 18.2 | 23.5 | 0.00 | 0.00 | 0.00 | 19 | 1015.7 |
| 20260507163818 | 56 | 360 | 16.5 | 20.9 | 0.00 | 0.00 | 0.00 | 19 | 1015.7 |
| 20260507162703 | 57 | 358 | 19.1 | 22.6 | 0.00 | 0.00 | 0.00 | 20 | 1015.6 |
| 20260507161803 | 57 | 360 | 16.5 | 20.0 | 0.00 | 0.00 | 0.00 | 19 | 1015.3 |
| 20260507160903 | 57 | 360 | 18.2 | 18.2 | 0.00 | 0.00 | 0.00 | 19 | 1015.3 |
| 20260507160004 | 58 | 360 | 17.4 | 20.0 | 0.00 | 0.00 | 0.00 | 19 | 1015.2 |
| 20260507155403 | 58 | 356 | 16.5 | 20.0 | 0.00 | 0.00 | 0.00 | 19 | 1015.1 |
| 20260507154504 | 58 | 358 | 16.5 | 19.1 | 0.00 | 0.00 | 0.00 | 19 | 1015.0 |
| 20260507153603 | 59 | 358 | 13.9 | 18.2 | 0.00 | 0.00 | 0.00 | 18 | 1014.9 |
| 20260507152703 | 60 | 3 | 13.0 | 17.4 | 0.00 | 0.00 | 0.00 | 17 | 1014.8 |
| 20260507151804 | 60 | 18 | 6.1 | 13.0 | 0.00 | 0.00 | 0.00 | 17 | 1014.8 |
| 20260507150903 | 60 | 343 | 7.8 | 13.0 | 0.00 | 0.00 | 0.00 | 18 | 1014.7 |
| 20260507150217 | 60 | 353 | 9.6 | 13.9 | 0.00 | 0.00 | 0.00 | 17 | 1014.8 |
| 20260507145403 | 60 | 8 | 6.1 | 7.8 | 0.00 | 0.00 | 0.00 | 17 | 1014.7 |
| 20260507144503 | 60 | 336 | 8.7 | 10.4 | 0.00 | 0.00 | 0.00 | 20 | 1014.6 |
| 20260507143603 | 60 | 12 | 9.6 | 13.0 | 0.00 | 0.00 | 0.00 | 18 | 1014.7 |
| 20260507142703 | 59 | 300 | 8.7 | 12.2 | 0.00 | 0.00 | 0.00 | 25 | 1014.5 |
| 20260507141803 | 58 | 307 | 11.3 | 13.9 | 0.00 | 0.00 | 0.00 | 24 | 1014.5 |
| 20260507141118 | 58 | 285 | 9.6 | 13.9 | 0.00 | 0.00 | 0.00 | 23 | 1014.6 |
| 20260507140003 | 58 | 307 | 9.6 | 13.0 | 0.00 | 0.00 | 0.00 | 23 | 1014.6 |
| 20260507135403 | 58 | 296 | 10.4 | 13.0 | 0.00 | 0.00 | 0.00 | 26 | 1014.6 |
| 20260507134503 | 58 | 320 | 10.4 | 14.8 | 0.00 | 0.00 | 0.00 | 26 | 1014.6 |
| 20260507133817 | 58 | 338 | 11.3 | 14.8 | 0.00 | 0.00 | 0.00 | 26 | 1014.5 |
| 20260507132703 | 58 | 309 | 12.2 | 17.4 | 0.00 | 0.00 | 0.00 | 21 | 1014.3 |
| 20260507131803 | 58 | 310 | 10.4 | 13.9 | 0.00 | 0.00 | 0.00 | 22 | 1014.4 |
| 20260507130903 | 58 | 318 | 12.2 | 14.8 | 0.00 | 0.00 | 0.00 | 22 | 1014.3 |
| 20260507130004 | 58 | 330 | 13.0 | 14.8 | 0.00 | 0.00 | 0.00 | 23 | 1014.6 |
| 20260507125618 | 58 | 317 | 13.9 | 16.5 | 0.00 | 0.00 | 0.00 | 23 | 1014.5 |
| 20260507124504 | 57 | 314 | 13.9 | 18.2 | 0.00 | 0.00 | 0.00 | 23 | 1014.3 |
| 20260507123603 | 57 | 329 | 13.0 | 17.4 | 0.00 | 0.00 | 0.00 | 21 | 1014.4 |
| 20260507122705 | 58 | 356 | 10.4 | 14.8 | 0.00 | 0.00 | 0.00 | 23 | 1014.4 |
| 20260507122018 | 59 | 31 | 6.1 | 13.0 | 0.00 | 0.00 | 0.00 | 20 | 1014.5 |
| 20260507120903 | 58 | 347 | 9.6 | 13.9 | 0.00 | 0.00 | 0.00 | 22 | 1014.5 |